,,PA_Meas_PMT16A,,PR_Meas_QMR101_102,,RH_Meas_QMH101,,SR_Meas_QMS101,,TA_Meas_QMH101,,GenWind,,GenWind,
time,status,PA,status,PR,status,RH,status,SR,status,TA,status,DirAvg,status,SpdAvg,
2016-12-20, 20:51:04,VALID,916.42,VALID,0,INVALID,126.732,VALID,185.443,VALID,21.2437,VALID,264,VALID,0,
2016-12-20, 20:52:04,VALID,916.372,VALID,0,INVALID,126.861,VALID,221.114,VALID,21.2616,VALID,214,VALID,0,
2016-12-20, 20:53:04,VALID,916.349,VALID,0,INVALID,127.067,VALID,286.331,VALID,21.3396,VALID,207,VALID,0,
2016-12-20, 20:54:04,VALID,916.312,VALID,0,INVALID,127.105,VALID,286.223,VALID,21.3981,VALID,194,VALID,0,
2016-12-20, 20:55:04,VALID,916.324,VALID,0,INVALID,127.105,VALID,257.966,VALID,21.4567,VALID,319,VALID,0,
2016-12-20, 20:56:04,VALID,916.285,VALID,0,INVALID,127.174,VALID,288.157,VALID,21.5152,VALID,274,VALID,0,
2016-12-20, 20:57:04,VALID,916.253,VALID,0,INVALID,126.899,VALID,277.306,VALID,21.4957,VALID,46,VALID,0.805078,
2016-12-20, 20:58:04,VALID,916.264,VALID,0,INVALID,126.808,VALID,275.801,VALID,21.5737,VALID,18,VALID,0.964063,
2016-12-20, 20:59:04,VALID,916.208,VALID,0,INVALID,126.671,VALID,254.098,VALID,21.5331,VALID,38,VALID,0.0078125,
2016-12-20, 21:00:04,VALID,916.239,VALID,0,INVALID,126.648,VALID,273.438,VALID,21.5932,VALID,16,VALID,0,
2016-12-20, 21:01:04,VALID,916.172,VALID,0,INVALID,126.091,VALID,267.314,VALID,21.4941,VALID,328,VALID,0,
2016-12-20, 21:02:04,VALID,916.19,VALID,0,INVALID,126.305,VALID,222.618,VALID,21.5152,VALID,21,VALID,0,
2016-12-20, 21:03:04,VALID,916.143,VALID,0,INVALID,126.953,VALID,178.567,VALID,21.6323,VALID,23,VALID,0,
2016-12-20, 21:04:04,VALID,916.176,VALID,0,INVALID,126.533,VALID,181.038,VALID,21.5542,VALID,5,VALID,0.713281,
2016-12-20, 21:05:04,VALID,916.141,VALID,0,INVALID,126.396,VALID,246.792,VALID,21.4941,VALID,94,VALID,0,
2016-12-20, 21:06:04,VALID,916.141,VALID,0,INVALID,126.427,VALID,285.579,VALID,21.5347,VALID,37,VALID,0,
2016-12-20, 21:07:04,VALID,916.116,VALID,0,INVALID,126.411,VALID,291.38,VALID,21.5136,VALID,75,VALID,0,
2016-12-20, 21:08:04,VALID,916.079,VALID,0,INVALID,126.533,VALID,260.867,VALID,21.5737,VALID,35,VALID,0,
2016-12-20, 21:09:04,VALID,916.107,VALID,0,INVALID,126.549,VALID,197.692,VALID,21.6128,VALID,346,VALID,0,
2016-12-20, 21:10:04,VALID,916.091,VALID,0,INVALID,125.39,VALID,176.848,VALID,21.455,VALID,30,VALID,1.70859,
2016-12-20, 21:11:04,VALID,916.084,VALID,0,INVALID,125.908,VALID,191.353,VALID,21.4567,VALID,273,VALID,0.0289063,
2016-12-20, 21:12:04,VALID,916.041,VALID,0,INVALID,125.931,VALID,183.187,VALID,21.3786,VALID,249,VALID,1.3457,
2016-12-20, 21:30:04,VALID,915.876,VALID,0,INVALID,127.22,VALID,187.27,VALID,20.4813,VALID,4,VALID,0.261328,
2016-12-20, 22:12:04,VALID,915.557,VALID,0,INVALID,126.129,VALID,163.955,VALID,20.2293,VALID,88,VALID,0.0585938,
2016-12-20, 22:13:04,VALID,915.597,VALID,0,INVALID,126.335,VALID,178.352,VALID,20.2098,VALID,255,VALID,0.567187,
2016-12-20, 22:14:04,VALID,915.556,VALID,0,INVALID,126.442,VALID,202.849,VALID,20.2098,VALID,286,VALID,0.948828,
2016-12-20, 22:15:04,VALID,915.538,VALID,0,INVALID,126.602,VALID,204.461,VALID,20.1693,VALID,248,VALID,0.284375,
2016-12-20, 22:16:04,VALID,915.503,VALID,0,INVALID,126.541,VALID,233.577,VALID,20.2473,VALID,198,VALID,0.355078,
2016-12-20, 22:17:04,VALID,915.505,VALID,0,INVALID,126.511,VALID,228.742,VALID,20.3269,VALID,199,VALID,1.3625,
2016-12-20, 22:18:04,VALID,915.515,VALID,0,INVALID,126.419,VALID,206.932,VALID,20.4244,VALID,117,VALID,0.724609,
2016-12-20, 22:19:04,VALID,915.5,VALID,0,INVALID,126.32,VALID,223.8,VALID,20.4813,VALID,349,VALID,1.47578,
2016-12-20, 22:20:04,VALID,915.509,VALID,0,INVALID,126.671,VALID,242.495,VALID,20.4829,VALID,41,VALID,0.653906,
2016-12-20, 22:21:04,VALID,915.539,VALID,0,INVALID,126.739,VALID,253.669,VALID,20.5399,VALID,326,VALID,0.586328,
2016-12-20, 22:22:04,VALID,915.502,VALID,0,INVALID,127.037,VALID,276.661,VALID,20.5219,VALID,15,VALID,0.905078,
2016-12-20, 22:23:04,VALID,915.472,VALID,0,INVALID,126.861,VALID,262.049,VALID,20.6569,VALID,26,VALID,0.924219,
2016-12-20, 22:24:04,VALID,915.502,VALID,0,INVALID,126.785,VALID,251.735,VALID,20.795,VALID,2,VALID,0.388672,
2016-12-20, 22:25:04,VALID,915.508,VALID,0,INVALID,126.808,VALID,233.792,VALID,20.8519,VALID,12,VALID,0.413281,
2016-12-20, 22:26:04,VALID,915.49,VALID,0,INVALID,126.732,VALID,198.121,VALID,20.9885,VALID,14,VALID,0,
2016-12-20, 22:27:04,VALID,915.489,VALID,0,INVALID,127.037,VALID,191.997,VALID,21.008,VALID,292,VALID,0,
2016-12-20, 22:28:04,VALID,915.53,VALID,0,INVALID,127.273,VALID,198.981,VALID,20.9495,VALID,295,VALID,0,
2016-12-20, 22:29:04,VALID,915.516,VALID,0,INVALID,127.395,VALID,182.757,VALID,20.9105,VALID,214,VALID,0,
2016-12-20, 22:30:04,VALID,915.512,VALID,0,INVALID,127.349,VALID,195.113,VALID,20.9885,VALID,316,VALID,0,
2016-12-20, 22:31:04,VALID,915.503,VALID,0,INVALID,127.38,VALID,214.13,VALID,20.969,VALID,19,VALID,0.829297,
2016-12-20, 22:32:04,VALID,915.473,VALID,0,INVALID,127.258,VALID,215.205,VALID,20.969,VALID,359,VALID,1.10938,
2016-12-20, 22:33:04,VALID,915.456,VALID,0,INVALID,126.922,VALID,207.147,VALID,20.912,VALID,347,VALID,0.0667969,
2016-12-20, 22:34:04,VALID,915.481,VALID,0,INVALID,126.877,VALID,183.08,VALID,20.891,VALID,322,VALID,0,
2016-12-20, 22:35:04,VALID,915.459,VALID,0,INVALID,126.854,VALID,163.955,VALID,20.891,VALID,359,VALID,0.96875,
2016-12-20, 22:37:04,VALID,915.452,VALID,0,INVALID,126.854,VALID,163.203,VALID,20.891,VALID,9,VALID,0,
2016-12-20, 22:38:04,VALID,915.412,VALID,0,INVALID,127.014,VALID,166.211,VALID,20.9495,VALID,3,VALID,1.11992,
2016-12-20, 22:46:04,VALID,915.329,VALID,0,INVALID,126.823,VALID,219.932,VALID,20.9511,VALID,21,VALID,0,
2016-12-20, 22:47:04,VALID,915.286,VALID,0,INVALID,127.014,VALID,214.56,VALID,21.047,VALID,21,VALID,0,
